Location: Matagami
(49.7589°N, 77.6258°W)
Time: 16:04:51
(UTC-04:00)

ISS - Visible Passes

Search period start: 29 July 2021 00:00
Search period end: 08 August 2021 00:00
Orbit: 419 x 421 km, 51.6° (Epoch: 29 July)

Date Brightness Start Highest point End Pass type
(mag) Time Alt. Az. Time Alt. Az. Time Alt. Az.
29 Jul -3.0 21:48:40 10° W 21:51:52 41° SSW 21:54:48 12° SE visible
30 Jul -1.4 22:39:11 10° WSW 22:40:52 13° SW 22:42:08 11° SSW visible
31 Jul -1.8 21:51:14 10° W 21:53:45 20° SW 21:56:15 10° S visible
